DB0WGS-1 Weather Reports


time (UTC)temp
F
wind
direction
speed
knots
gust
knots
rain 1hr
in
rain 24hr
in
rain mn
in
humidity
%
barometer
mb
20260505110913 -40 5.2 8.7 0.00 0.00 0.00 14 1006.3
20260505102049 -40 4.3 7.8 0.00 0.00 0.00 14 1006.7
20260505100843 -40 4.3 8.7 0.00 0.00 0.00 14 1006.8
20260505095637 -40 5.2 11.3 0.00 0.00 0.00 14 1006.9
20260505094431 -40 6.1 8.7 0.00 0.00 0.00 14 1007.0
20260505093224 -40 6.1 9.6 0.00 0.00 0.00 14 1007.1
20260505092018 -40 5.2 8.7 0.00 0.00 0.00 14 1007.2
20260505090813 -40 6.1 9.6 0.00 0.00 0.00 14 1007.3
20260505085606 -40 6.1 8.7 0.00 0.00 0.00 14 1007.4
20260505084401 -40 6.1 8.7 0.00 0.00 0.00 14 1007.3
20260505083154 -40 6.1 8.7 0.00 0.00 0.00 14 1007.3
20260505081952 -40 5.2 8.7 0.00 0.00 0.00 14 1007.3
20260505080747 -40 5.2 7.8 0.00 0.00 0.00 14 1007.4
20260505075536 -40 4.3 7.8 0.00 0.00 0.00 14 1007.5
20260505074329 -40 3.5 7.0 0.00 0.00 0.00 14 1007.6
20260505073128 -40 2.6 7.0 0.00 0.00 0.00 14 1007.6
20260505071918 -40 2.6 4.3 0.00 0.00 0.00 14 1007.6
20260505070711 -40 2.6 4.3 0.00 0.00 0.00 14 1007.5
20260505065505 -40 1.7 4.3 0.00 0.00 0.00 14 1007.6
20260505064301 -40 2.6 4.3 0.00 0.00 0.00 14 1007.7
20260505063053 -40 1.7 3.5 0.00 0.00 0.00 14 1007.7
20260505061847 -40 0.9 2.6 0.00 0.00 0.00 14 1007.7
20260505060641 -40 0.9 2.6 0.00 0.00 0.00 14 1007.8
20260505055435 -40 1.7 2.6 0.00 0.00 0.00 14 1007.8
20260505054230 -40 2.6 3.5 0.00 0.00 0.00 14 1007.9
20260505053022 -40 2.6 3.5 0.00 0.00 0.00 14 1007.8
20260505051816 -40 0.9 2.6 0.00 0.00 0.00 14 1007.7
20260505050613 -40 0.9 2.6 0.00 0.00 0.00 14 1007.7
20260505041746 -40 0.9 3.5 0.00 0.00 0.00 14 1007.9
20260505040540 -40 0.9 2.6 0.00 0.00 0.00 14 1008.0
20260505035334 -40 0.9 1.7 0.00 0.00 0.00 14 1008.0
20260505034128 -40 0.9 2.6 0.00 0.00 0.00 14 1008.0
20260505032922 -40 0.9 2.6 0.00 0.00 0.00 14 1008.1
20260505031718 -40 0.9 2.6 0.00 0.00 0.00 14 1008.2
20260505030509 -40 1.7 3.5 0.00 0.00 0.00 14 1008.3
20260505025305 -40 0.9 2.6 0.00 0.00 0.00 14 1008.4
20260505024057 -40 0.9 2.6 0.00 0.00 0.00 14 1008.5
20260505022853 -40 1.7 3.5 0.00 0.00 0.00 14 1008.6
20260505021652 -40 2.6 4.3 0.00 0.00 0.00 14 1008.7
20260505020440 -40 2.6 4.3 0.00 0.00 0.00 14 1008.8
20260505015233 -40 4.3 5.2 0.00 0.00 0.00 14 1008.8
20260505014027 -40 4.3 7.0 0.00 0.00 0.00 14 1008.8
20260505012821 -40 1.7 3.5 0.00 0.00 0.00 14 1008.8
20260505011615 -40 1.7 3.5 0.00 0.00 0.00 14 1008.9
20260505010411 -40 1.7 3.5 0.00 0.00 0.00 14 1009.1
20260505005203 -40 3.5 4.3 0.00 0.00 0.00 14 1009.2
20260505003956 -40 4.3 7.0 0.00 0.00 0.00 14 1009.3
20260505002751 -40 5.2 7.0 0.00 0.00 0.00 14 1009.3
20260505001545 -40 4.3 7.0 0.00 0.00 0.00 14 1009.3
20260505000338 -40 4.3 7.0 0.00 0.00 0.00 14 1009.3
20260504235132 -40 3.5 7.0 0.00 0.00 0.00 14 1009.3
20260504233926 -40 0.9 3.5 0.00 0.00 0.00 14 1009.3
20260504232720 -40 0.9 2.6 0.00 0.00 0.00 14 1009.3
20260504231515 -40 1.7 3.5 0.00 0.00 0.00 14 1009.3
20260504230307 -40 0.9 3.5 0.00 0.00 0.00 14 1009.4
20260504225102 -40 1.7 3.5 0.00 0.00 0.00 14 1009.5
20260504223856 -40 1.7 4.3 0.00 0.00 0.00 14 1009.6
20260504222739 -40 2.6 7.8 0.00 0.00 0.00 14 1009.5
20260504222650 -40 2.6 7.8 0.00 0.00 0.00 14 1009.5
20260504221443 -40 6.1 11.3 0.00 0.00 0.00 14 1009.4
20260504220237 -40 3.5 7.8 0.00 0.00 0.00 14 1009.4
20260504215031 -40 4.3 19.1 0.00 0.00 0.00 14 1009.6
20260504213826 -40 8.7 21.7 0.00 0.00 0.00 14 1010.4
20260504212620 -40 2.6 10.4 0.00 0.00 0.00 14 1010.7
20260504211413 -40 2.6 9.6 0.00 0.00 0.00 14 1011.1
20260504210208 -40 7.0 17.4 0.00 0.00 0.00 14 1011.2
20260504205001 -40 6.1 11.3 0.00 0.00 0.00 14 1011.1
20260504203755 -40 2.6 7.8 0.00 0.00 0.00 14 1010.8
20260504202549 -40 3.5 10.4 0.00 0.00 0.00 14 1010.6
20260504201343 -40 6.1 9.6 0.00 0.00 0.00 14 1011.1
20260504200137 -40 8.7 13.9 0.00 0.00 0.00 14 1011.2
20260504194930 -40 10.4 14.8 0.00 0.00 0.00 14 1011.1
20260504193725 -40 4.3 9.6 0.00 0.00 0.00 14 1011.3
20260504192552 -40 5.2 11.3 0.00 0.00 0.00 14 1011.1
20260504192519 -40 5.2 11.3 0.00 0.00 0.00 14 1011.1
20260504191313 -40 5.2 11.3 0.00 0.00 0.00 14 1010.8
20260504190106 -40 4.3 10.4 0.00 0.00 0.00 14 1010.7
20260504184900 -40 5.2 10.4 0.00 0.00 0.00 14 1010.4
20260504183654 -40 6.1 8.7 0.00 0.00 0.00 14 1010.2
20260504182447 -40 5.2 11.3 0.00 0.00 0.00 14 1010.0
20260504181242 -40 6.1 11.3 0.00 0.00 0.00 14 1009.9
20260504180036 -40 1.7 7.8 0.00 0.00 0.00 14 1009.8
20260504174831 -40 2.6 4.3 0.00 0.00 0.00 14 1009.9
20260504173623 -40 1.7 2.6 0.00 0.00 0.00 14 1009.9
20260504172418 -40 0.9 2.6 0.00 0.00 0.00 14 1009.8
20260504171211 -40 0.9 2.6 0.00 0.00 0.00 14 1009.9
20260504151110 -40 2.6 7.0 0.00 0.00 0.00 14 1010.8
20260504141042 -40 2.6 7.0 0.00 0.00 0.00 14 1011.3